(473795) = 2011 FQ154 = 2015 BS220 = 2016 EG90

Discovered at Mount Lemmon on 2007-09-10 by Mt. Lemmon Survey.

Orbit

Orbit type: Main Belt

Note: WebGL enabled browser required.

epoch2023-09-13.0
epoch JD2460200.5
perihelion date2022-09-26.72886
perihelion JD2459849.22886
argument of perihelion (°)229.08820
ascending node (°)40.76550
inclination (°)6.64703
eccentricity0.0822153
perihelion distance (AU)2.8165721
Tisserand w.r.t. Jupiter3.2
ΔV w.r.t. Earth (km/sec)10.6
semimajor axis (AU)3.0688810
mean anomaly (°)64.39857
mean daily motion (°/day)0.18333010
aphelion distance (AU)3.321
period (years)5.38
P-vector [x]-0.00587027
P-vector [y]-0.87915301
P-vector [z]-0.47650343
Q-vector [x]0.99712228
Q-vector [y]0.03087029
Q-vector [z]-0.06923998
absolute magnitude16.22
phase slope0.15
uncertainty0
referenceMPO 780212
observations used242
oppositions14
arc length (days)8629
first opposition used2000
last opposition used2023
residual rms (arc-secs)0.76
perturbers coarse indicatorM-v
perturbers precise indicator003Ek
first observation date used2000-03-03.0
last observation date used2023-10-18.0
computer nameMPCLINUX
JD of orbit computation2457614.479111
perihelion JD uncertainty (days)1.6638E-04
argument of perihelion uncertainty (°)4.2381E-05
ascending node uncertainty (°)3.1484E-05
inclination uncertainty (°)4.2405E-06
eccentricity uncertainty 3.5859E-08
perihelion distance uncertainty (AU)1.1282E-07
Minimum Orbit Intersection Distances (in AU)
for orbit epoch: 2460200.5, reference: E2023-U59
Mercury2.35148
Venus2.09228
Earth1.80575
Mars1.31402
Jupiter1.74632
Saturn5.7596
Uranus15.3069
Neptune26.6141

Observations

244 total observations over interval: 2000 03 03.483687 – 2023 10 18.265884
These data are available for download (format description).

Date (UT) J2000 RA J2000 Dec Magn Location Ref
2000 03 03.483687 13 22 00.206 -03 14 58.28 21.04 V 645 – Apache Point-Sloan Digital Sky Survey MPS 721548
2000 03 03.487159 13 22 00.119 -03 14 57.74 21.60   645 – Apache Point-Sloan Digital Sky Survey MPS 721548
2002 10 30.21646 01 24 54.29 +06 18 36.3   644 – Palomar Mountain/NEAT MPS 721548
2002 10 30.23738 01 24 53.43 +06 18 32.5   644 – Palomar Mountain/NEAT MPS 721548
2002 10 30.25712 01 24 52.47 +06 18 30.1   644 – Palomar Mountain/NEAT MPS 721548
2007 09 10.31410 23 56 55.64 -08 23 59.8 20.5 V G96 – Mt. Lemmon Survey MPS 721548
2007 09 10.31452 23 56 55.68 -08 24 00.2 20.5 V G96 – Mt. Lemmon Survey MPS 721548
2007 09 10.31601 23 56 55.57 -08 24 00.3 20.5 V G96 – Mt. Lemmon Survey MPS 721548
2007 09 10.31647 23 56 55.57 -08 24 00.4 20.6 V G96 – Mt. Lemmon Survey MPS 721548
2007 09 10.31795 23 56 55.50 -08 24 01.0 20.5 V G96 – Mt. Lemmon Survey MPS 721548
2007 09 10.31841 23 56 55.46 -08 24 01.1 20.4 V G96 – Mt. Lemmon Survey MPS 721548
2007 09 10.31991 23 56 55.39 -08 24 01.4 20.6 V G96 – Mt. Lemmon Survey MPS 721548
2007 09 10.32036 23 56 55.35 -08 24 01.4 20.5 V G96 – Mt. Lemmon Survey MPS 721548
2007 10 16.21093 23 31 00.62 -09 52 55.2 21.0 V G96 – Mt. Lemmon Survey MPS 721548
2007 10 16.21769 23 31 00.40 -09 52 55.7 20.9 V G96 – Mt. Lemmon Survey MPS 721548
2007 10 16.22431 23 31 00.22 -09 52 55.6 20.9 V G96 – Mt. Lemmon Survey MPS 721548
2007 10 16.23095 23 30 59.97 -09 52 55.7 20.9 V G96 – Mt. Lemmon Survey MPS 721548
2008 10 31.39545 04 46 55.99 +25 51 16.0   691 – Steward Observatory, Kitt Peak-Spacewatch MPS 721548
2008 10 31.41318 04 46 55.38 +25 51 16.3   691 – Steward Observatory, Kitt Peak-Spacewatch MPS 721548
2008 10 31.43091 04 46 54.75 +25 51 17.4   691 – Steward Observatory, Kitt Peak-Spacewatch MPS 721548
2008 11 08.42599 04 41 36.96 +25 58 08.1 21.1 V 691 – Steward Observatory, Kitt Peak-Spacewatch MPS 721548
2008 11 08.44366 04 41 36.13 +25 58 08.6 21.1 V 691 – Steward Observatory, Kitt Peak-Spacewatch MPS 721548
2008 11 08.46132 04 41 35.37 +25 58 09.3 21.0 V 691 – Steward Observatory, Kitt Peak-Spacewatch MPS 721548
2008 11 19.27286 04 32 46.52 +26 01 17.0 20.7 V 691 – Steward Observatory, Kitt Peak-Spacewatch MPS 721548
2008 11 19.29050 04 32 45.56 +26 01 16.4 20.9 V 691 – Steward Observatory, Kitt Peak-Spacewatch MPS 721548
2008 11 19.30814 04 32 44.60 +26 01 16.5 20.7 V 691 – Steward Observatory, Kitt Peak-Spacewatch MPS 721548
2008 12 06.18493 04 17 18.53 +25 51 42.1   691 – Steward Observatory, Kitt Peak-Spacewatch MPS 723746
2008 12 06.20263 04 17 17.56 +25 51 41.1   691 – Steward Observatory, Kitt Peak-Spacewatch MPS 723746
2008 12 06.22032 04 17 16.38 +25 51 37.3   691 – Steward Observatory, Kitt Peak-Spacewatch MPS 723746
2011 03 29.40522 14 48 13.50 -14 42 18.3 20.9 V 691 – Steward Observatory, Kitt Peak-Spacewatch MPS 381287
2011 03 29.42299 14 48 12.95 -14 42 17.5 20.6 V 691 – Steward Observatory, Kitt Peak-Spacewatch MPS 381287
2011 03 29.44076 14 48 12.55 -14 42 17.6 20.6 V 691 – Steward Observatory, Kitt Peak-Spacewatch MPS 381287
2011 04 02.40821 14 46 18.80 -14 40 48.2 20.6 V 691 – Steward Observatory, Kitt Peak-Spacewatch MPS 381287
2011 04 02.42596 14 46 18.20 -14 40 47.3 20.5 V 691 – Steward Observatory, Kitt Peak-Spacewatch MPS 381287
2011 04 02.44372 14 46 17.63 -14 40 47.0 20.7 V 691 – Steward Observatory, Kitt Peak-Spacewatch MPS 381287
2011 04 29.34103 14 26 35.23 -14 04 52.9 19.8 V G96 – Mt. Lemmon Survey MPS 721548
2011 04 29.34687 14 26 34.90 -14 04 52.2 19.7 V G96 – Mt. Lemmon Survey MPS 721548
2011 04 29.35272 14 26 34.62 -14 04 51.6 19.5 V G96 – Mt. Lemmon Survey MPS 721548
2011 04 29.35860 14 26 34.29 -14 04 50.9 19.6 V G96 – Mt. Lemmon Survey MPS 721548
2012 08 21.38095 21 36 45.836 -24 45 24.31 20.2 w F51 – Pan-STARRS 1, Haleakala MPS 721548
2012 08 21.39478 21 36 45.146 -24 45 26.34 20.4 w F51 – Pan-STARRS 1, Haleakala MPS 721548
2012 08 21.40892 21 36 44.398 -24 45 28.47 20.3 w F51 – Pan-STARRS 1, Haleakala MPS 721548
2012 08 21.42276 21 36 43.686 -24 45 30.65 20.2 w F51 – Pan-STARRS 1, Haleakala MPS 721548
2013 10 09.37241 03 00 01.75 +16 32 54.2 20.5 V G96 – Mt. Lemmon Survey MPS 721548
2013 10 09.37905 03 00 01.51 +16 32 53.5 20.6 V G96 – Mt. Lemmon Survey MPS 721548
2013 10 09.38571 03 00 01.26 +16 32 53.0 20.6 V G96 – Mt. Lemmon Survey MPS 721548
2013 10 09.39236 03 00 01.02 +16 32 53.0 20.1 V G96 – Mt. Lemmon Survey MPS 721548
2013 10 26.40343 02 47 33.59 +16 06 53.4 20.4 V G96 – Mt. Lemmon Survey MPS 721548
2013 10 26.40675 02 47 33.41 +16 06 53.1 20.2 V G96 – Mt. Lemmon Survey MPS 721548
2013 10 26.41005 02 47 33.27 +16 06 52.6 20.8 V G96 – Mt. Lemmon Survey MPS 721548
2013 11 10.20816 02 34 59.65 +15 34 33.6 20.2 V G96 – Mt. Lemmon Survey MPS 721548
2013 11 10.21507 02 34 59.30 +15 34 32.9 20.3 V G96 – Mt. Lemmon Survey MPS 721548
2013 11 10.22198 02 34 58.93 +15 34 31.9 19.9 V G96 – Mt. Lemmon Survey MPS 721548
2013 11 10.22890 02 34 58.59 +15 34 31.1 20.1 V G96 – Mt. Lemmon Survey MPS 721548
2014 12 26.52589 07 46 49.403 +29 50 37.77 21.0 w F51 – Pan-STARRS 1, Haleakala MPS 721548
2014 12 26.53823 07 46 48.788 +29 50 40.23 21.1 w F51 – Pan-STARRS 1, Haleakala MPS 721548
2014 12 26.55054 07 46 48.174 +29 50 43.01 20.9 w F51 – Pan-STARRS 1, Haleakala MPS 721548
2014 12 26.56289 07 46 47.560 +29 50 45.56 21.0 w F51 – Pan-STARRS 1, Haleakala MPS 721548
2015 01 18.29260 07 26 12.840 +30 54 54.42 20.8 w F51 – Pan-STARRS 1, Haleakala MPS 563388
2015 01 18.30590 07 26 12.073 +30 54 55.92 20.9 w F51 – Pan-STARRS 1, Haleakala MPS 563388
2015 01 18.31916 07 26 11.325 +30 54 57.57 20.9 w F51 – Pan-STARRS 1, Haleakala MPS 563388
2015 01 18.33252 07 26 10.558 +30 54 59.08 20.8 w F51 – Pan-STARRS 1, Haleakala MPS 563388
2015 01 20.32696 07 24 20.082 +30 58 24.16 21.0 w F51 – Pan-STARRS 1, Haleakala MPS 563388
2015 01 20.33889 07 24 19.398 +30 58 25.30 21.1 w F51 – Pan-STARRS 1, Haleakala MPS 563388
2015 01 20.35081 07 24 18.734 +30 58 26.46 20.9 w F51 – Pan-STARRS 1, Haleakala MPS 563388
2015 01 20.36274 07 24 18.057 +30 58 27.67 21.0 w F51 – Pan-STARRS 1, Haleakala MPS 563388
2015 02 12.16912 07 07 01.51 +31 08 17.3 21.5 V G96 – Mt. Lemmon Survey MPS 721548
2015 02 12.17520 07 07 01.33 +31 08 17.2 21.1 V G96 – Mt. Lemmon Survey MPS 721548
2015 02 12.18129 07 07 01.14 +31 08 17.3 21.5 V G96 – Mt. Lemmon Survey MPS 721548
2015 02 12.18738 07 07 00.90 +31 08 17.5 21.8 V G96 – Mt. Lemmon Survey MPS 721548
2016 02 29.50741 12 46 05.487 +01 40 59.15 20.8 r F51 – Pan-STARRS 1, Haleakala MPS 692850
2016 02 29.51934 12 46 05.110 +01 41 01.49 20.8 r F51 – Pan-STARRS 1, Haleakala MPS 692850
2016 02 29.53151 12 46 04.718 +01 41 03.54 20.7 r F51 – Pan-STARRS 1, Haleakala MPS 692850
2016 02 29.54345 12 46 04.335 +01 41 05.64 20.6 r F51 – Pan-STARRS 1, Haleakala MPS 692850
2016 03 07.43632 12 42 09.151 +02 04 00.35 20.8 w F51 – Pan-STARRS 1, Haleakala MPS 692850
2016 03 07.44985 12 42 08.632 +02 04 02.96 20.7 w F51 – Pan-STARRS 1, Haleakala MPS 692850
2016 03 07.46341 12 42 08.085 +02 04 05.98 20.7 w F51 – Pan-STARRS 1, Haleakala MPS 692850
2016 03 07.47705 12 42 07.551 +02 04 08.75 20.6 w F51 – Pan-STARRS 1, Haleakala MPS 692850
2016 03 09.08361 12 41 05.67 +02 09 51.3 20.4 R J04 – ESA Optical Ground Station, Tenerife MPS 692850
2016 03 09.10699 12 41 04.72 +02 09 56.5 20.0 R J04 – ESA Optical Ground Station, Tenerife MPS 692850
2016 03 14.22319 12 37 33.17 +02 28 43.0 20.4 r G45 – Space Surveillance Telescope, Atom Site MPS 692851
2016 03 14.23329 12 37 32.71 +02 28 45.1 20.7 r G45 – Space Surveillance Telescope, Atom Site MPS 692851
2016 03 14.23855 12 37 32.50 +02 28 46.1 21.0 r G45 – Space Surveillance Telescope, Atom Site MPS 692851
2016 03 14.24340 12 37 32.27 +02 28 47.9 19.9 r G45 – Space Surveillance Telescope, Atom Site MPS 692851
2016 03 14.24367 12 37 32.24 +02 28 47.8 20.4 r G45 – Space Surveillance Telescope, Atom Site MPS 692851
2016 03 14.48843 12 37 21.469 +02 29 43.28 20.5 w F51 – Pan-STARRS 1, Haleakala MPS 692851
2016 03 14.51275 12 37 20.364 +02 29 48.57 20.6 w F51 – Pan-STARRS 1, Haleakala MPS 692851
2016 03 14.52487 12 37 19.823 +02 29 51.35 20.5 w F51 – Pan-STARRS 1, Haleakala MPS 692851
